Regional Weather Roundup
Issued by NWS Kansas City/Pleasant Hill, MO

Home | Current Version | Previous Version | Text Only | Print | Product List | Glossary On
Versions: 1 2 3 4 5 6 7 8 9 10 11 12 13 14 15 16 17 18 19 20 21 22 23 24 25 26 27
000
ASUS43 KEAX 241510
RWREAX

WEATHER ROUNDUP FOR EASTERN KANSAS AND NORTHWEST MISSOURI
NATIONAL WEATHER SERVICE KANSAS CITY/PLEASANT HILL MO
900 AM CST FRI FEB 24 2017

KSZ040-057-103>105-MOZ028-029-037-043-241600-
...KANSAS CITY METROPOLITAN AREA...

CITY           SKY/WX    TMP DP  RH WIND       PRES   REMARKS
K.C. INTL      DRIZZLE   37  35  92 W13       29.66R FOG     WCI  29
K.C. DOWNTOWN  CLOUDY    39  34  82 W10       29.67R WCI  32
LEES SUMMIT    CLOUDY    38  35  89 W13       29.66R WCI  30
OLATHE - IXD   CLOUDY    37  35  92 W14       29.68R WCI  28
OLATHE - OJC   CLOUDY    36  36 100 W9G17     29.67R WCI  29
LAWRENCE       CLOUDY    38  36  92 W15       29.69R WCI  29

$$

MOZ001>008-011>017-020>025-030>033-038>040-044>046-053-054-241600-
...NORTHERN AND CENTRAL MISSOURI...

CITY           SKY/WX    TMP DP  RH WIND       PRES   REMARKS
ST. JOSEPH     LGT RAIN  37  37 100 NW14      29.67R FOG     WCI  28
MOSBY          CLOUDY    37  34  87 W10G20    29.65R WCI  30
WARRENSBURG    CLOUDY    39  34  81 W14G24    29.66R WCI  31
WHITEMAN AFB   CLOUDY    41  41 100 W17G23    29.63R WCI  33
CLINTON        CLOUDY    41  37  87 W16       29.67R WCI  33
SEDALIA        PTSUNNY   44  38  79 W15G23    29.63R
WARSAW         NOT AVBL
CHILLICOTHE      N/A     41  38  89 NW9       29.60R
KIRKSVILLE     CLOUDY    39  38  96 NW12      29.55R WCI  32

$$

MOZ041-047>049-056>058-063>065-088>090-097-241600-
...EASTERN AND SOUTHERN MISSOURI...

CITY           SKY/WX    TMP DP  RH WIND       PRES   REMARKS
ST. LOUIS INTL CLOUDY    65  54  67 S10G18    29.49R
SPIRIT OF STL  PTSUNNY   65  56  72 SW13      29.48R
COLUMBIA       CLOUDY    46  42  86 W20G25    29.58R
JEFFERSON CITY CLOUDY    47  40  76 W16G28    29.60R
ROLLA          CLOUDY    50  46  86 W17G26    29.57R
OSAGE BEACH    CLOUDY    46  40  79 W12       29.63R
SPRINGFIELD    CLOUDY    43  38  82 NW15G24   29.66S
BRANSON        CLOUDY    46  41  81 NW12G18   29.67R
JOPLIN         CLOUDY    40  35  83 NW14G23   29.74R WCI  32
WEST PLAINS    PTSUNNY   62  53  72 SW12      29.59R

$$

IAZ060-094-KSZ022-034>040-054-083-096-NEZ052-066-093-241600-
...KANSAS...SOUTHEAST NEBRASKA AND IOWA...

CITY           SKY/WX    TMP DP  RH WIND       PRES   REMARKS
TOPEKA         CLOUDY    37  37 100 W8        29.70R FOG     WCI  31
MANHATTAN      CLOUDY    34  31  88 NW7       29.76R FOG     WCI  28
EMPORIA        PTSUNNY   35  29  78 W20G29    29.74R WCI  24
CHANUTE        CLOUDY    38  28  67 W18G25    29.76R WCI  28
WICHITA        CLOUDY    35  25  66 NW22G30   29.82R WCI  23
OMAHA          FRZ RAIN  27  22  81 N25G35    29.75R WCI  12
LINCOLN        LGT SNOW  27  24  89 N30G38    29.79R FOG     WCI  11
FALLS CITY     CLOUDY    33  29  85 N18G25    29.70R WCI  22
LAMONI         CLOUDY    35  33  92 N12       29.59R WCI  27
DES MOINES     LGT SNOW  33  31  92 N17G23    29.62R FOG     WCI  22

$$





USA.gov is the U.S. government's official web portal to all federal, state and local government web resources and services.